EW0651 Weather Reports


time (UTC)temp
C
wind
direction
speed
KPH
gust
KPH
rain 1hr
cm
rain 24hr
cm
rain mn
cm
humidity
%
barometer
mb
20260906190018 28 340 1.6 6.4 0.00 0.00 0.00 75 1012.3
20260906184517 27 53 0.0 4.8 0.00 0.00 0.00 77 1012.5
20260906183019 27 65 0.0 4.8 0.00 0.00 0.00 78 1012.4
20260906181535 27 45 0.0 4.8 0.00 0.00 0.00 76 1012.4
20260906180020 27 61 0.0 6.4 0.00 0.00 0.00 77 1012.6
20260906174513 27 322 3.2 6.4 0.00 0.00 0.00 77 1012.8
20260906173012 27 5 0.0 3.2 0.00 0.00 0.00 75 1012.9
20260906171509 26 339 0.0 3.2 0.00 0.00 0.00 77 1013.0
20260906170008 26 12 0.0 3.2 0.00 0.00 0.00 78 1013.3
20260906164505 26 314 1.6 4.8 0.00 0.00 0.00 78 1013.4
20260906163004 26 326 0.0 3.2 0.00 0.00 0.00 77 1013.5
20260906161504 26 334 1.6 8.0 0.00 0.00 0.00 76 1013.4
20260906160002 26 331 1.6 6.4 0.00 0.00 0.00 78 1013.6
20260906154600 26 330 0.0 4.8 0.00 0.00 0.00 80 1013.4
20260906153059 25 351 0.0 4.8 0.00 0.00 0.00 80 1013.4
20260906151604 26 338 0.0 6.4 0.00 0.00 0.00 80 1013.4
20260906150057 25 267 0.0 3.2 0.00 0.00 0.00 80 1013.4
20260906144607 25 348 0.0 3.2 0.00 0.00 0.00 82 1013.4
20260906143056 24 291 0.0 3.2 0.00 0.00 0.00 82 1013.4
20260906141544 23 285 0.0 3.2 0.00 0.00 0.00 84 1013.2
20260906140042 23 254 1.6 3.2 0.00 0.00 0.00 85 1013.4
20260906134536 23 278 3.2 6.4 0.00 0.00 0.00 85 1013.4
20260906133035 23 233 4.8 9.7 0.00 0.00 0.00 85 1013.6
20260906131537 23 297 6.4 16.1 0.00 0.00 0.00 83 1013.3
20260906130029 23 101 1.6 3.2 0.00 0.00 0.00 81 1012.4
20260906124526 23 121 0.0 3.2 0.00 0.00 0.00 82 1012.3
20260906123025 23 123 0.0 3.2 0.00 0.00 0.00 81 1012.2
20260906121523 23 115 1.6 3.2 0.00 0.00 0.00 81 1012.0
20260906120021 23 94 1.6 4.8 0.00 0.00 0.00 81 1011.9
20260906114531 23 98 1.6 4.8 0.00 0.00 0.00 81 1011.8
20260906113017 23 114 1.6 4.8 0.00 0.00 0.00 83 1011.6
20260906111517 23 101 0.0 3.2 0.00 0.00 0.00 83 1011.5
20260906110015 23 87 1.6 3.2 0.00 0.00 0.00 83 1011.4
20260906104517 23 99 1.6 3.2 0.00 0.00 0.00 82 1011.5
20260906103013 23 93 1.6 3.2 0.00 0.00 0.00 82 1011.6
20260906101512 23 96 1.6 3.2 0.00 0.00 0.00 82 1011.4
20260906100013 23 98 1.6 4.8 0.00 0.00 0.00 82 1011.4
20260906094532 23 110 1.6 4.8 0.00 0.00 0.00 82 1011.4
20260906093018 23 120 1.6 3.2 0.00 0.00 0.00 83 1011.4
20260906091510 23 125 1.6 6.4 0.00 0.00 0.00 82 1011.4
20260906090014 23 105 1.6 6.4 0.00 0.00 0.00 82 1011.4
20260906084509 23 100 1.6 3.2 0.00 0.00 0.00 84 1011.4
20260906083008 23 82 0.0 3.2 0.00 0.00 0.00 84 1011.5
20260906081513 23 89 1.6 3.2 0.00 0.00 0.00 83 1011.5
20260906080009 23 100 1.6 3.2 0.00 0.00 0.00 82 1011.4
20260906074505 23 107 1.6 6.4 0.00 0.00 0.00 81 1011.4
20260906073005 24 105 1.6 3.2 0.00 0.00 0.00 82 1011.4
20260906071504 23 98 0.0 3.2 0.00 0.00 0.00 82 1011.3
20260906070002 23 96 1.6 3.2 0.00 0.00 0.00 84 1011.2
20260906064600 24 96 1.6 3.2 0.00 0.00 0.00 82 1011.3
20260906063059 23 96 1.6 3.2 0.00 0.00 0.00 83 1011.4
20260906061559 23 85 1.6 4.8 0.00 0.00 0.00 83 1011.5
20260906060100 24 96 1.6 4.8 0.00 0.00 0.00 82 1011.4
20260906054607 24 75 1.6 3.2 0.00 0.00 0.00 81 1011.4
20260906053053 25 82 1.6 3.2 0.00 0.00 0.00 81 1011.5
20260906051602 25 81 1.6 3.2 0.00 0.00 0.00 80 1011.4
20260906050056 25 92 1.6 3.2 0.00 0.00 0.00 80 1011.3
20260906044554 25 121 1.6 3.2 0.00 0.00 0.00 81 1011.3
20260906043045 25 114 1.6 4.8 0.00 0.00 0.00 79 1011.2
20260906041545 25 103 1.6 3.2 0.00 0.00 0.00 82 1011.3
20260906040052 25 84 1.6 4.8 0.00 0.00 0.00 81 1011.2
20260906034544 25 82 1.6 4.8 0.00 0.00 0.00 80 1011.1
20260906033048 25 78 1.6 3.2 0.00 0.00 0.00 80 1011.1
20260906031543 26 78 1.6 3.2 0.00 0.00 0.00 78 1011.0
20260906030043 26 81 1.6 6.4 0.00 0.00 0.00 78 1010.8
20260906024549 26 84 1.6 4.8 0.00 0.00 0.00 75 1010.5
20260906023041 27 84 1.6 6.4 0.00 0.00 0.00 74 1010.1
20260906021541 27 88 3.2 4.8 0.00 0.00 0.00 74 1010.0
20260906020041 26 88 1.6 3.2 0.00 0.00 0.00 74 1009.7
20260906014604 27 116 0.0 3.2 0.00 0.00 0.00 73 1009.5
20260906013046 27 116 0.0 3.2 0.00 0.00 0.00 73 1009.2
20260906011541 27 116 0.0 3.2 0.00 0.00 0.00 74 1009.1
20260906010039 27 116 0.0 3.2 0.00 0.00 0.00 73 1009.1
20260906004539 29 116 0.0 3.2 0.00 0.00 0.00 68 1008.9
20260906003038 30 122 1.6 6.4 0.00 0.00 0.00 66 1009.0
20260906001537 31 113 4.8 6.4 0.00 0.00 0.00 64 1008.9
20260906000041 31 127 3.2 8.0 0.00 0.00 0.00 62 1009.1
20260905234537 31 145 4.8 8.0 0.00 0.00 0.00 62 1009.1
20260905233035 32 148 6.4 16.1 0.00 0.00 0.00 61 1009.1
20260905231535 32 148 8.0 16.1 0.00 0.00 0.00 58 1008.9
20260905230034 33 136 9.7 20.9 0.00 0.00 0.00 56 1008.9
20260905224533 33 158 9.7 19.3 0.00 0.00 0.00 55 1008.9
20260905223033 33 132 9.7 20.9 0.00 0.00 0.00 53 1008.8
20260905221536 33 179 9.7 20.9 0.00 0.00 0.00 53 1008.8
20260905220030 34 150 9.7 22.5 0.00 0.00 0.00 54 1008.7
20260905214530 34 130 12.9 20.9 0.00 0.00 0.00 53 1008.8
20260905213026 34 109 11.3 17.7 0.00 0.00 0.00 56 1009.1
20260905211534 34 120 11.3 25.7 0.00 0.00 0.00 57 1009.2
20260905210022 33 76 9.7 17.7 0.00 0.00 0.00 61 1009.4
20260905204526 33 80 8.0 17.7 0.00 0.00 0.00 61 1009.8
20260905203018 33 71 12.9 25.7 0.00 0.00 0.00 63 1010.1
20260905201516 33 59 9.7 24.1 0.00 0.00 0.00 62 1010.4
20260905200018 32 88 8.0 20.9 0.00 0.00 0.00 67 1010.7
20260905194511 32 68 11.3 25.7 0.00 0.00 0.00 64 1011.1
20260905193011 32 74 14.5 32.2 0.00 0.00 0.00 64 1011.3
20260905191511 32 64 14.5 27.4 0.00 0.00 0.00 65 1011.6